Location: Killam
(52.7910°N, 111.8608°W)
Time: 16:35:27
(UTC+00:00)

Vanguard 2 Rocket - Pass Details

Date: 18 February 2026
Orbit: 553 x 3286 km, 32.9° (Epoch: 11 March)

Event Time Altitude Azimuth Distance (km) Brightness Sun altitude
Rises 01:23:39 0° 263° (W) 5,816 13.7 -6.6°
Reaches altitude 10° 01:31:33 10° 236° (SW) 3,995 11.4 -7.8°
Maximum altitude 01:34:14 11° 221° (SW) 3,593 10.7 -8.2°
Drops below altitude 10° 01:36:36 10° 205° (SSW) 3,423 10.3 -8.6°
Sets 01:41:41 0° 172° (S) 3,796 10.1 -9.3°
